Tracking 18942 objects as of 18-Jan-2018
HD Live streaming from Space Station
objects crossing your sky now

FENGYUN 1C DEB

Track FENGYUN 1C DEB now!
10-day predictions


NORAD ID: 31418
Int'l Code: 1999-025BTE
Perigee: 801.5 km
Apogee: 894.0 km
Inclination: 99.1 °
Period: 101.7 minutes
Semi major axis: 7218 km
RCS: 0.0149 m2 (small)
Launch date: May 10, 1999
Source: People's Republic of China (PRC)
Launch site: Taiyaun Space Center, China (TSC)

Note: This is SATELLITE DEBRIS
aabbcc
Your satellite tracking list
Your tracking list is empty




NASA's NSSDC Master Catalog

Two Line Element Set (TLE):
1 31418U 99025BTE 18013.14993580 +.00000842 +00000-0 +44616-3 0  9992
2 31418 099.1398 122.4908 0064070 200.5524 159.3069 14.15491248550348
Source of the keplerian elements: AFSPC